QPF
0.01 0.02 0.03 0.03 0.07 0.05 0.02 0.00 0.00 0.00 0.00 0.00 0.00 0.00 0.00 0.00 0.01 0.01 0.01 0.01 0.00 0.00 0.00 0.00 0.00 0.00 0.00 0.01 0.01 0.01 0.00 0.00 0.00 0.00 0.00 0.00 0.01 0.01 0.01 0.01 0.02 0.01 0.01 0.01 0.01 0.01 0.01 0.01 0.02
0.02 0.03 0.04 0.06 0.06 0.03 0.01 0.00 0.00 0.00 0.00 0.00 0.00 0.00 0.00 0.00 0.00 0.00 0.01 0.01 0.00 0.00 0.00 0.00 0.00 0.00 0.00 0.01 0.01 0.01 0.00 0.00 0.00 0.00 0.00 0.01 0.01 0.01 0.01 0.01 0.02 0.02 0.01 0.01 0.01 0.01 0.01 0.01 0.01
0.02 0.03 0.07 0.13 0.08 0.03 0.01 0.01 0.00 0.00 0.00 0.00 0.00 0.00 0.00 0.00 0.00 0.00 0.01 0.01 0.00 0.00 0.00 0.00 0.00 0.00 0.00 0.01 0.01 0.01 0.01 0.01 0.00 0.00 0.01 0.01 0.01 0.01 0.02 0.02 0.02 0.01 0.01 0.01 0.01 0.02 0.01 0.01 0.01
0.02 0.04 0.08 0.11 0.07 0.02 0.01 0.01 0.01 0.01 0.01 0.01 0.02 0.02 0.01 0.00 0.00 0.00 0.01 0.00 0.00 0.00 0.00 0.00 0.00 0.00 0.00 0.00 0.01 0.01 0.01 0.01 0.01 0.01 0.01 0.01 0.01 0.01 0.01 0.01 0.01 0.01 0.01 0.01 0.01 0.01 0.01 0.01 0.02
0.02 0.03 0.07 0.05 0.04 0.02 0.01 0.01 0.01 0.01 0.01 0.01 0.03 0.04 0.01 0.00 0.00 0.00 0.00 0.00 0.00 0.00 0.00 0.00 0.00 0.00 0.00 0.00 0.01 0.01 0.01 0.00 0.01 0.01 0.00 0.01 0.01 0.01 0.01 0.01 0.01 0.01 0.01 0.00 0.01 0.01 0.02 0.02 0.03
0.03 0.04 0.06 0.06 0.04 0.02 0.01 0.00 0.00 0.01 0.01 0.01 0.02 0.04 0.02 0.01 0.00 0.00 0.00 0.01 0.00 0.00 0.00 0.00 0.00 0.00 0.00 0.00 0.00 0.00 0.00 0.00 0.01 0.01 0.01 0.01 0.01 0.01 0.01 0.01 0.02 0.01 0.01 0.01 0.01 0.01 0.02 0.03 0.04
0.03 0.08 0.06 0.06 0.04 0.02 0.01 0.00 0.00 0.00 0.01 0.03 0.02 0.02 0.02 0.02 0.01 0.01 0.01 0.01 0.01 0.00 0.00 0.00 0.00 0.00 0.01 0.01 0.01 0.00 0.00 0.00 0.01 0.01 0.01 0.01 0.01 0.01 0.01 0.01 0.01 0.01 0.01 0.00 0.00 0.01 0.01 0.02 0.02
0.01 0.02 0.03 0.04 0.04 0.02 0.01 0.00 0.01 0.01 0.01 0.02 0.02 0.01 0.01 0.01 0.01 0.01 0.01 0.03 0.03 0.02 0.01 0.00 0.00 0.00 0.00 0.01 0.01 0.00 0.00 0.00 0.01 0.01 0.01 0.01 0.01 0.01 0.01 0.01 0.01 0.01 0.01 0.01 0.00 0.00 0.01 0.01 0.02
0.00 0.01 0.02 0.02 0.02 0.01 0.01 0.01 0.01 0.01 0.02 0.02 0.03 0.01 0.01 0.01 0.01 0.01 0.02 0.03 0.05 0.10 0.05 0.02 0.03 0.01 0.02 0.01 0.01 0.01 0.01 0.01 0.01 0.01 0.01 0.01 0.01 0.01 0.01 0.00 0.00 0.00 0.00 0.01 0.01 0.01 0.01 0.01 0.02
0.00 0.01 0.01 0.01 0.01 0.01 0.00 0.01 0.01 0.01 0.07 0.04 0.03 0.02 0.01 0.01 0.01 0.01 0.02 0.03 0.04 0.11 0.07 0.03 0.05 0.04 0.04 0.02 0.01 0.01 0.01 0.00 0.00 0.00 0.01 0.01 0.01 0.01 0.02 0.01 0.01 0.01 0.01 0.01 0.01 0.02 0.02 0.02 0.02
0.00 0.00 0.00 0.00 0.00 0.00 0.00 0.00 0.01 0.01 0.01 0.01 0.01 0.01 0.01 0.00 0.01 0.02 0.03 0.03 0.04 0.06 0.08 0.10 0.03 0.03 0.05 0.04 0.01 0.00 0.01 0.00 0.00 0.01 0.02 0.03 0.03 0.02 0.01 0.01 0.01 0.01 0.01 0.01 0.02 0.02 0.03 0.04 0.05
0.00 0.00 0.00 0.00 0.00 0.00 0.00 0.00 0.00 0.00 0.01 0.01 0.00 0.00 0.00 0.00 0.01 0.02 0.02 0.03 0.04 0.06 0.07 0.10 0.06 0.06 0.07 0.05 0.02 0.01 0.01 0.01 0.01 0.02 0.03 0.04 0.04 0.04 0.02 0.01 0.01 0.01 0.02 0.02 0.03 0.04 0.06 0.06 0.08
0.00 0.00 0.00 0.00 0.00 0.00 0.00 0.00 0.00 0.02 0.01 0.01 0.00 0.00 0.00 0.00 0.00 0.01 0.02 0.03 0.03 0.05 0.06 0.07 0.08 0.07 0.08 0.06 0.03 0.01 0.02 0.02 0.02 0.06 0.06 0.04 0.05 0.06 0.03 0.02 0.02 0.02 0.03 0.03 0.05 0.05 0.04 0.05 0.07
0.00 0.00 0.00 0.00 0.00 0.00 0.00 0.00 0.01 0.05 0.03 0.02 0.01 0.01 0.00 0.00 0.01 0.02 0.04 0.03 0.03 0.03 0.06 0.07 0.10 0.09 0.11 0.08 0.06 0.05 0.05 0.05 0.05 0.06 0.04 0.04 0.07 0.07 0.02 0.02 0.03 0.04 0.04 0.03 0.04 0.04 0.04 0.05 0.05
0.00 0.00 0.00 0.00 0.00 0.00 0.00 0.00 0.00 0.02 0.02 0.04 0.03 0.02 0.01 0.02 0.01 0.02 0.02 0.02 0.03 0.04 0.05 0.07 0.10 0.11 0.16 0.17 0.11 0.08 0.07 0.10 0.16 0.06 0.04 0.04 0.05 0.03 0.01 0.01 0.03 0.06 0.04 0.04 0.04 0.04 0.04 0.04 0.04
0.00 0.00 0.00 0.00 0.00 0.00 0.00 0.00 0.00 0.01 0.04 0.03 0.03 0.03 0.02 0.03 0.02 0.02 0.02 0.02 0.03 0.03 0.04 0.07 0.10 0.15 0.20 0.26 0.22 0.15 0.14 0.13 0.13 0.06 0.04 0.04 0.05 0.04 0.02 0.01 0.03 0.04 0.03 0.03 0.04 0.05 0.05 0.05 0.05
0.00 0.00 0.00 0.00 0.00 0.00 0.00 0.00 0.00 0.01 0.02 0.03 0.06 0.06 0.03 0.03 0.03 0.02 0.02 0.02 0.03 0.03 0.05 0.07 0.12 0.17 0.23 0.31 0.26 0.21 0.20 0.14 0.14 0.11 0.06 0.06 0.07 0.05 0.02 0.01 0.01 0.02 0.03 0.03 0.03 0.04 0.04 0.04 0.05
0.00 0.00 0.00 0.00 0.00 0.00 0.00 0.00 0.00 0.00 0.01 0.02 0.09 0.08 0.04 0.02 0.02 0.02 0.02 0.03 0.03 0.04 0.05 0.05 0.10 0.18 0.24 0.29 0.24 0.19 0.18 0.15 0.17 0.12 0.05 0.05 0.06 0.05 0.04 0.03 0.01 0.02 0.03 0.02 0.01 0.02 0.03 0.03 0.03
0.00 0.00 0.00 0.00 0.00 0.00 0.00 0.00 0.00 0.00 0.01 0.02 0.02 0.05 0.04 0.02 0.02 0.03 0.03 0.03 0.03 0.04 0.03 0.03 0.05 0.13 0.19 0.22 0.17 0.12 0.14 0.14 0.13 0.12 0.05 0.04 0.04 0.04 0.04 0.03 0.02 0.02 0.03 0.01 0.01 0.01 0.02 0.02 0.02
0.00 0.00 0.00 0.00 0.00 0.00 0.00 0.00 0.00 0.00 0.00 0.01 0.01 0.03 0.03 0.02 0.03 0.03 0.04 0.04 0.03 0.04 0.03 0.03 0.05 0.11 0.15 0.17 0.14 0.11 0.16 0.12 0.10 0.13 0.07 0.04 0.03 0.04 0.03 0.03 0.03 0.02 0.03 0.03 0.03 0.02 0.01 0.01 0.02
0.00 0.00 0.00 0.00 0.01 0.00 0.00 0.00 0.00 0.00 0.00 0.00 0.01 0.01 0.02 0.03 0.05 0.07 0.05 0.03 0.03 0.04 0.04 0.05 0.08 0.11 0.12 0.13 0.13 0.16 0.20 0.14 0.11 0.11 0.07 0.06 0.04 0.03 0.03 0.02 0.02 0.02 0.02 0.03 0.03 0.02 0.02 0.01 0.02
0.00 0.00 0.00 0.00 0.00 0.00 0.00 0.00 0.01 0.01 0.01 0.01 0.01 0.03 0.04 0.09 0.12 0.09 0.04 0.03 0.03 0.03 0.04 0.05 0.07 0.09 0.10 0.12 0.13 0.14 0.16 0.11 0.10 0.11 0.07 0.06 0.04 0.03 0.03 0.03 0.02 0.02 0.02 0.02 0.02 0.01 0.01 0.01 0.02
0.00 0.00 0.00 0.00 0.00 0.00 0.00 0.00 0.01 0.01 0.01 0.02 0.02 0.03 0.05 0.07 0.10 0.07 0.04 0.03 0.03 0.03 0.03 0.03 0.05 0.07 0.07 0.09 0.11 0.13 0.13 0.10 0.10 0.10 0.09 0.07 0.05 0.04 0.03 0.03 0.03 0.03 0.03 0.02 0.01 0.01 0.01 0.01 0.01
0.00 0.00 0.00 0.00 0.00 0.00 0.00 0.00 0.01 0.01 0.01 0.02 0.05 0.07 0.07 0.05 0.05 0.05 0.05 0.05 0.04 0.04 0.03 0.02 0.04 0.05 0.05 0.07 0.08 0.12 0.14 0.13 0.11 0.10 0.09 0.08 0.08 0.07 0.05 0.04 0.04 0.04 0.03 0.03 0.02 0.01 0.01 0.01 0.01
0.00 0.00 0.00 0.00 0.00 0.00 0.00 0.00 0.01 0.01 0.01 0.01 0.03 0.07 0.05 0.03 0.03 0.03 0.05 0.06 0.04 0.03 0.03 0.04 0.04 0.03 0.05 0.06 0.07 0.11 0.14 0.13 0.10 0.10 0.08 0.10 0.08 0.07 0.07 0.06 0.05 0.04 0.04 0.04 0.03 0.02 0.01 0.00 0.01
0.00 0.00 0.00 0.00 0.00 0.02 0.01 0.00 0.01 0.01 0.02 0.03 0.04 0.05 0.08 0.06 0.03 0.02 0.03 0.02 0.03 0.03 0.03 0.04 0.03 0.03 0.04 0.06 0.08 0.11 0.11 0.09 0.07 0.09 0.10 0.09 0.07 0.06 0.07 0.08 0.06 0.05 0.05 0.04 0.04 0.03 0.02 0.01 0.01
0.00 0.00 0.00 0.00 0.00 0.00 0.00 0.01 0.02 0.01 0.02 0.05 0.05 0.04 0.05 0.04 0.02 0.02 0.02 0.01 0.02 0.03 0.02 0.02 0.02 0.03 0.03 0.05 0.06 0.09 0.07 0.05 0.06 0.06 0.06 0.09 0.08 0.07 0.06 0.06 0.06 0.05 0.05 0.04 0.04 0.04 0.03 0.02 0.02
0.00 0.00 0.00 0.00 0.00 0.00 0.00 0.02 0.04 0.03 0.04 0.10 0.06 0.05 0.05 0.04 0.04 0.03 0.01 0.01 0.02 0.02 0.02 0.02 0.02 0.03 0.04 0.06 0.04 0.03 0.04 0.06 0.07 0.06 0.06 0.08 0.10 0.09 0.09 0.07 0.07 0.07 0.06 0.05 0.06 0.05 0.05 0.04 0.04
0.00 0.00 0.00 0.00 0.00 0.00 0.01 0.02 0.04 0.03 0.04 0.07 0.06 0.06 0.05 0.05 0.05 0.03 0.01 0.01 0.02 0.01 0.02 0.02 0.02 0.03 0.05 0.05 0.02 0.02 0.02 0.05 0.06 0.05 0.04 0.05 0.06 0.07 0.09 0.09 0.07 0.07 0.06 0.05 0.08 0.09 0.08 0.07 0.05
0.00 0.00 0.00 0.00 0.00 0.00 0.00 0.01 0.03 0.02 0.02 0.03 0.05 0.06 0.05 0.06 0.05 0.04 0.02 0.01 0.01 0.01 0.01 0.02 0.02 0.02 0.03 0.04 0.03 0.03 0.03 0.03 0.04 0.04 0.06 0.09 0.08 0.08 0.08 0.07 0.08 0.09 0.08 0.08 0.08 0.07 0.06 0.05 0.04
MSLP
1008.86 1009.86 1011.01 1012.08 1012.89 1013.29 1013.24 1012.81 1012.14 1011.41 1010.84 1010.54 1010.58 1010.93 1011.48 1012.09 1012.62 1012.95 1013.05 1012.96 1012.76 1012.55 1012.45 1012.51 1012.75 1013.13 1013.58 1014.00 1014.34 1014.55 1014.64 1014.64 1014.60 1014.59 1014.64 1014.76 1014.93 1015.12 1015.31 1015.44 1015.53 1015.56 1015.57 1015.57 1015.61 1015.69 1015.81 1015.96 1016.13
1009.19 1010.36 1011.59 1012.65 1013.36 1013.59 1013.35 1012.73 1011.88 1011.04 1010.38 1010.05 1010.08 1010.42 1010.98 1011.58 1012.11 1012.44 1012.56 1012.50 1012.35 1012.22 1012.19 1012.34 1012.65 1013.09 1013.57 1014.03 1014.39 1014.63 1014.74 1014.78 1014.78 1014.79 1014.85 1014.97 1015.12 1015.28 1015.42 1015.53 1015.59 1015.63 1015.65 1015.70 1015.79 1015.92 1016.08 1016.27 1016.46
1009.81 1011.11 1012.36 1013.35 1013.90 1013.95 1013.50 1012.70 1011.72 1010.79 1010.09 1009.75 1009.78 1010.14 1010.68 1011.27 1011.77 1012.08 1012.19 1012.15 1012.05 1011.98 1012.02 1012.23 1012.60 1013.08 1013.60 1014.08 1014.46 1014.72 1014.87 1014.94 1014.97 1015.01 1015.08 1015.18 1015.31 1015.43 1015.53 1015.60 1015.65 1015.69 1015.75 1015.84 1015.99 1016.17 1016.39 1016.61 1016.83
1010.67 1012.03 1013.24 1014.10 1014.47 1014.31 1013.68 1012.73 1011.65 1010.68 1009.99 1009.67 1009.72 1010.08 1010.61 1011.17 1011.63 1011.91 1012.01 1011.98 1011.91 1011.89 1011.99 1012.25 1012.67 1013.17 1013.69 1014.17 1014.56 1014.83 1015.00 1015.10 1015.17 1015.24 1015.32 1015.41 1015.51 1015.60 1015.66 1015.71 1015.75 1015.80 1015.90 1016.05 1016.25 1016.49 1016.75 1017.00 1017.22
1011.65 1013.00 1014.10 1014.79 1014.97 1014.61 1013.83 1012.78 1011.66 1010.71 1010.06 1009.79 1009.87 1010.24 1010.75 1011.26 1011.67 1011.91 1011.99 1011.98 1011.94 1011.97 1012.13 1012.43 1012.86 1013.36 1013.86 1014.31 1014.67 1014.94 1015.12 1015.24 1015.34 1015.44 1015.55 1015.65 1015.75 1015.82 1015.86 1015.89 1015.94 1016.01 1016.14 1016.33 1016.58 1016.86 1017.14 1017.40 1017.63
1012.58 1013.83 1014.78 1015.28 1015.26 1014.74 1013.85 1012.77 1011.68 1010.80 1010.23 1010.03 1010.16 1010.53 1011.01 1011.47 1011.83 1012.03 1012.11 1012.11 1012.12 1012.21 1012.41 1012.74 1013.16 1013.63 1014.08 1014.48 1014.79 1015.02 1015.20 1015.33 1015.47 1015.61 1015.75 1015.89 1016.00 1016.08 1016.13 1016.17 1016.22 1016.31 1016.47 1016.69 1016.96 1017.26 1017.55 1017.81 1018.01
1013.27 1014.37 1015.13 1015.42 1015.23 1014.60 1013.67 1012.61 1011.62 1010.85 1010.41 1010.30 1010.49 1010.86 1011.30 1011.71 1012.02 1012.19 1012.27 1012.30 1012.37 1012.51 1012.76 1013.11 1013.52 1013.95 1014.33 1014.65 1014.89 1015.08 1015.23 1015.38 1015.55 1015.74 1015.94 1016.13 1016.28 1016.39 1016.46 1016.51 1016.57 1016.68 1016.85 1017.08 1017.36 1017.66 1017.94 1018.18 1018.35
1013.62 1014.53 1015.07 1015.16 1014.82 1014.13 1013.21 1012.25 1011.39 1010.79 1010.49 1010.49 1010.73 1011.11 1011.51 1011.87 1012.13 1012.28 1012.37 1012.46 1012.59 1012.80 1013.10 1013.48 1013.87 1014.25 1014.56 1014.79 1014.96 1015.09 1015.23 1015.39 1015.60 1015.85 1016.11 1016.36 1016.56 1016.71 1016.81 1016.88 1016.95 1017.06 1017.23 1017.46 1017.74 1018.02 1018.28 1018.49 1018.64
1013.61 1014.30 1014.61 1014.52 1014.07 1013.34 1012.49 1011.65 1010.98 1010.55 1010.41 1010.52 1010.81 1011.19 1011.56 1011.87 1012.09 1012.23 1012.35 1012.49 1012.69 1012.98 1013.34 1013.75 1014.14 1014.47 1014.72 1014.88 1014.99 1015.08 1015.20 1015.38 1015.63 1015.93 1016.26 1016.58 1016.84 1017.03 1017.15 1017.23 1017.31 1017.42 1017.58 1017.79 1018.04 1018.31 1018.55 1018.74 1018.88
1013.31 1013.76 1013.86 1013.60 1013.06 1012.33 1011.56 1010.88 1010.38 1010.14 1010.14 1010.35 1010.68 1011.06 1011.40 1011.67 1011.86 1012.00 1012.15 1012.35 1012.63 1013.00 1013.42 1013.86 1014.26 1014.57 1014.78 1014.91 1014.98 1015.04 1015.16 1015.36 1015.65 1016.01 1016.40 1016.77 1017.08 1017.31 1017.45 1017.54 1017.62 1017.71 1017.85 1018.04 1018.27 1018.52 1018.75 1018.94 1019.08
1012.87 1013.09 1012.98 1012.58 1011.96 1011.25 1010.56 1010.02 1009.68 1009.59 1009.72 1010.01 1010.38 1010.74 1011.05 1011.29 1011.46 1011.61 1011.79 1012.04 1012.39 1012.83 1013.32 1013.80 1014.22 1014.54 1014.74 1014.86 1014.92 1014.99 1015.13 1015.36 1015.69 1016.09 1016.53 1016.94 1017.28 1017.53 1017.69 1017.78 1017.85 1017.92 1018.04 1018.21 1018.43 1018.68 1018.91 1019.12 1019.27
1012.45 1012.47 1012.18 1011.64 1010.96 1010.25 1009.64 1009.20 1008.98 1009.01 1009.23 1009.57 1009.95 1010.30 1010.59 1010.80 1010.96 1011.12 1011.32 1011.62 1012.02 1012.51 1013.04 1013.57 1014.02 1014.37 1014.60 1014.74 1014.84 1014.94 1015.11 1015.37 1015.74 1016.17 1016.63 1017.07 1017.43 1017.69 1017.86 1017.95 1018.00 1018.07 1018.17 1018.33 1018.55 1018.80 1019.05 1019.28 1019.48
1012.21 1012.05 1011.60 1010.95 1010.21 1009.50 1008.92 1008.55 1008.41 1008.50 1008.76 1009.12 1009.50 1009.84 1010.11 1010.30 1010.45 1010.62 1010.84 1011.15 1011.58 1012.09 1012.66 1013.21 1013.70 1014.09 1014.38 1014.58 1014.73 1014.90 1015.12 1015.42 1015.81 1016.26 1016.72 1017.16 1017.52 1017.79 1017.96 1018.05 1018.10 1018.16 1018.26 1018.42 1018.64 1018.91 1019.19 1019.46 1019.69
1012.22 1011.91 1011.34 1010.61 1009.82 1009.10 1008.53 1008.18 1008.06 1008.16 1008.42 1008.77 1009.14 1009.46 1009.71 1009.90 1010.05 1010.21 1010.43 1010.75 1011.16 1011.67 1012.23 1012.80 1013.32 1013.76 1014.12 1014.40 1014.64 1014.88 1015.15 1015.49 1015.89 1016.34 1016.79 1017.21 1017.56 1017.83 1018.00 1018.10 1018.17 1018.23 1018.34 1018.51 1018.74 1019.02 1019.33 1019.64 1019.91
1012.45 1012.04 1011.39 1010.61 1009.80 1009.06 1008.49 1008.13 1007.99 1008.06 1008.28 1008.60 1008.93 1009.23 1009.48 1009.67 1009.83 1009.99 1010.19 1010.48 1010.86 1011.32 1011.85 1012.40 1012.94 1013.44 1013.87 1014.24 1014.57 1014.89 1015.22 1015.59 1015.99 1016.41 1016.84 1017.23 1017.56 1017.82 1018.00 1018.12 1018.21 1018.30 1018.43 1018.61 1018.85 1019.15 1019.47 1019.81 1020.11
1012.81 1012.34 1011.66 1010.87 1010.07 1009.35 1008.77 1008.38 1008.20 1008.21 1008.37 1008.62 1008.91 1009.19 1009.44 1009.65 1009.81 1009.97 1010.16 1010.39 1010.71 1011.11 1011.58 1012.09 1012.63 1013.16 1013.66 1014.12 1014.55 1014.95 1015.33 1015.72 1016.11 1016.50 1016.87 1017.22 1017.52 1017.77 1017.97 1018.12 1018.25 1018.38 1018.53 1018.73 1018.98 1019.28 1019.61 1019.95 1020.27
1013.14 1012.67 1012.03 1011.30 1010.56 1009.88 1009.31 1008.90 1008.66 1008.58 1008.65 1008.82 1009.06 1009.32 1009.57 1009.80 1009.98 1010.15 1010.31 1010.50 1010.74 1011.05 1011.44 1011.90 1012.42 1012.97 1013.53 1014.08 1014.59 1015.06 1015.49 1015.88 1016.25 1016.58 1016.90 1017.20 1017.47 1017.71 1017.93 1018.12 1018.29 1018.46 1018.64 1018.86 1019.11 1019.39 1019.71 1020.05 1020.37
1013.32 1012.91 1012.37 1011.77 1011.15 1010.56 1010.03 1009.60 1009.29 1009.11 1009.07 1009.15 1009.32 1009.55 1009.81 1010.06 1010.27 1010.45 1010.60 1010.74 1010.91 1011.13 1011.43 1011.83 1012.32 1012.88 1013.49 1014.10 1014.68 1015.22 1015.68 1016.08 1016.41 1016.69 1016.94 1017.18 1017.41 1017.65 1017.88 1018.10 1018.32 1018.53 1018.75 1018.97 1019.21 1019.48 1019.78 1020.09 1020.41
1013.28 1012.99 1012.63 1012.22 1011.78 1011.33 1010.87 1010.43 1010.04 1009.74 1009.57 1009.52 1009.60 1009.79 1010.05 1010.33 1010.59 1010.80 1010.95 1011.06 1011.17 1011.31 1011.53 1011.86 1012.31 1012.87 1013.51 1014.17 1014.82 1015.41 1015.90 1016.29 1016.58 1016.81 1017.00 1017.17 1017.37 1017.58 1017.82 1018.08 1018.34 1018.59 1018.83 1019.06 1019.29 1019.53 1019.80 1020.08 1020.39
1013.03 1012.91 1012.79 1012.64 1012.44 1012.15 1011.77 1011.32 1010.84 1010.40 1010.06 1009.86 1009.83 1009.96 1010.20 1010.51 1010.82 1011.08 1011.27 1011.38 1011.45 1011.54 1011.69 1011.96 1012.37 1012.92 1013.57 1014.28 1014.97 1015.60 1016.12 1016.50 1016.76 1016.94 1017.06 1017.18 1017.33 1017.52 1017.76 1018.04 1018.33 1018.61 1018.87 1019.10 1019.32 1019.53 1019.76 1020.03 1020.32
1012.64 1012.76 1012.93 1013.07 1013.12 1013.01 1012.71 1012.23 1011.65 1011.04 1010.50 1010.12 1009.94 1009.98 1010.21 1010.54 1010.91 1011.24 1011.48 1011.63 1011.70 1011.75 1011.86 1012.07 1012.45 1012.98 1013.64 1014.37 1015.10 1015.76 1016.30 1016.69 1016.93 1017.06 1017.13 1017.20 1017.30 1017.47 1017.70 1017.99 1018.29 1018.59 1018.86 1019.09 1019.29 1019.48 1019.69 1019.93 1020.21
1012.25 1012.64 1013.12 1013.57 1013.87 1013.92 1013.67 1013.15 1012.42 1011.61 1010.84 1010.25 1009.91 1009.85 1010.03 1010.39 1010.82 1011.24 1011.56 1011.77 1011.87 1011.92 1012.00 1012.18 1012.52 1013.02 1013.68 1014.42 1015.17 1015.86 1016.42 1016.81 1017.05 1017.16 1017.19 1017.22 1017.29 1017.42 1017.64 1017.91 1018.22 1018.52 1018.79 1019.02 1019.21 1019.38 1019.56 1019.79 1020.06
1011.98 1012.66 1013.44 1014.18 1014.69 1014.87 1014.65 1014.04 1013.14 1012.10 1011.09 1010.27 1009.75 1009.57 1009.71 1010.08 1010.59 1011.10 1011.52 1011.81 1011.97 1012.04 1012.12 1012.27 1012.57 1013.04 1013.67 1014.40 1015.16 1015.86 1016.44 1016.86 1017.10 1017.20 1017.23 1017.23 1017.26 1017.37 1017.56 1017.82 1018.12 1018.41 1018.68 1018.90 1019.08 1019.24 1019.40 1019.61 1019.88
1011.90 1012.85 1013.91 1014.88 1015.56 1015.82 1015.57 1014.85 1013.77 1012.49 1011.24 1010.20 1009.50 1009.21 1009.30 1009.70 1010.27 1010.88 1011.41 1011.79 1012.01 1012.13 1012.21 1012.34 1012.60 1013.02 1013.61 1014.32 1015.07 1015.78 1016.37 1016.80 1017.07 1017.18 1017.21 1017.21 1017.23 1017.31 1017.48 1017.71 1017.99 1018.27 1018.52 1018.74 1018.91 1019.06 1019.22 1019.41 1019.67
1012.02 1013.20 1014.47 1015.61 1016.39 1016.67 1016.37 1015.53 1014.27 1012.79 1011.32 1010.09 1009.25 1008.86 1008.91 1009.33 1009.96 1010.66 1011.28 1011.76 1012.06 1012.21 1012.30 1012.41 1012.63 1013.00 1013.53 1014.19 1014.91 1015.60 1016.20 1016.66 1016.94 1017.09 1017.14 1017.14 1017.16 1017.24 1017.38 1017.60 1017.85 1018.11 1018.35 1018.56 1018.72 1018.87 1019.02 1019.21 1019.45
1012.26 1013.61 1015.02 1016.24 1017.06 1017.32 1016.95 1016.00 1014.60 1012.96 1011.35 1009.99 1009.04 1008.59 1008.63 1009.06 1009.74 1010.51 1011.22 1011.78 1012.14 1012.33 1012.43 1012.51 1012.68 1012.99 1013.45 1014.04 1014.70 1015.37 1015.96 1016.42 1016.74 1016.92 1017.01 1017.04 1017.08 1017.15 1017.29 1017.48 1017.72 1017.96 1018.19 1018.38 1018.55 1018.69 1018.84 1019.02 1019.24
1012.52 1013.95 1015.41 1016.65 1017.45 1017.66 1017.22 1016.19 1014.72 1013.01 1011.34 1009.93 1008.95 1008.48 1008.51 1008.96 1009.68 1010.50 1011.27 1011.87 1012.28 1012.50 1012.60 1012.66 1012.78 1013.01 1013.39 1013.90 1014.49 1015.10 1015.67 1016.13 1016.47 1016.69 1016.82 1016.89 1016.96 1017.06 1017.20 1017.39 1017.61 1017.84 1018.06 1018.25 1018.42 1018.56 1018.71 1018.88 1019.08
1012.66 1014.09 1015.51 1016.69 1017.42 1017.58 1017.11 1016.06 1014.60 1012.92 1011.29 1009.93 1008.98 1008.54 1008.60 1009.06 1009.80 1010.63 1011.42 1012.05 1012.48 1012.71 1012.81 1012.85 1012.93 1013.09 1013.39 1013.80 1014.31 1014.85 1015.37 1015.82 1016.17 1016.42 1016.59 1016.72 1016.83 1016.96 1017.13 1017.33 1017.55 1017.78 1018.00 1018.19 1018.36 1018.52 1018.67 1018.84 1019.02
1012.57 1013.91 1015.22 1016.28 1016.93 1017.04 1016.57 1015.59 1014.23 1012.69 1011.21 1009.97 1009.14 1008.77 1008.87 1009.34 1010.06 1010.87 1011.64 1012.27 1012.70 1012.94 1013.04 1013.07 1013.11 1013.22 1013.44 1013.77 1014.18 1014.64 1015.10 1015.51 1015.86 1016.13 1016.35 1016.53 1016.70 1016.88 1017.09 1017.32 1017.56 1017.80 1018.03 1018.24 1018.42 1018.59 1018.75 1018.92 1019.10
1012.22 1013.40 1014.54 1015.45 1016.00 1016.07 1015.66 1014.80 1013.63 1012.32 1011.07 1010.04 1009.37 1009.10 1009.24 1009.71 1010.40 1011.16 1011.88 1012.47 1012.89 1013.14 1013.25 1013.28 1013.31 1013.39 1013.55 1013.80 1014.12 1014.49 1014.88 1015.24 1015.57 1015.86 1016.12 1016.36 1016.60 1016.85 1017.11 1017.38 1017.66 1017.93 1018.17 1018.40 1018.60 1018.79 1018.97 1019.15 1019.33
Thickness
5842 5840 5837 5824 5801 5778 5777 5795 5808 5808 5808 5817 5821 5813 5801 5791 5779 5766 5788 5794 5791 5786 5782 5779 5777 5775 5774 5772 5771 5770 5769 5769 5768 5767 5766 5766 5765 5764 5763 5761 5760 5759 5758 5756 5755 5754 5753 5752 5751
5845 5843 5831 5812 5782 5760 5776 5802 5805 5809 5816 5823 5820 5814 5802 5792 5795 5789 5790 5792 5790 5786 5782 5779 5777 5775 5774 5772 5770 5769 5768 5768 5767 5766 5765 5764 5763 5762 5761 5760 5759 5757 5756 5754 5753 5752 5751 5750 5748
5846 5843 5818 5795 5776 5767 5780 5805 5810 5816 5826 5825 5816 5815 5805 5795 5797 5793 5794 5793 5789 5785 5782 5779 5777 5775 5773 5771 5770 5768 5767 5766 5765 5765 5764 5763 5762 5761 5759 5758 5757 5755 5754 5752 5751 5750 5748 5747 5746
5841 5826 5809 5785 5777 5791 5801 5811 5820 5815 5819 5824 5817 5806 5807 5811 5807 5800 5796 5793 5788 5784 5781 5779 5776 5774 5772 5770 5769 5767 5766 5765 5764 5763 5763 5762 5761 5759 5758 5756 5755 5753 5752 5750 5749 5747 5746 5745 5744
5836 5812 5788 5775 5785 5806 5821 5827 5830 5819 5814 5816 5816 5799 5796 5808 5810 5802 5796 5792 5787 5783 5780 5778 5775 5773 5771 5769 5768 5766 5765 5764 5763 5762 5761 5760 5759 5758 5756 5754 5753 5751 5750 5749 5747 5745 5744 5743 5742
5818 5802 5774 5769 5789 5813 5825 5834 5832 5821 5815 5815 5811 5799 5793 5805 5804 5800 5797 5791 5788 5784 5780 5777 5774 5772 5770 5768 5766 5765 5764 5763 5762 5761 5760 5759 5757 5756 5754 5753 5751 5749 5748 5747 5745 5744 5743 5742 5741
5810 5793 5779 5784 5794 5807 5823 5835 5830 5821 5815 5816 5817 5797 5794 5800 5805 5802 5797 5791 5787 5783 5780 5776 5773 5770 5769 5767 5765 5763 5762 5761 5760 5759 5758 5757 5756 5754 5753 5751 5749 5748 5746 5745 5744 5743 5742 5740 5739
5824 5798 5787 5789 5798 5807 5830 5835 5834 5829 5822 5829 5825 5802 5793 5802 5807 5802 5795 5789 5784 5781 5779 5776 5772 5769 5767 5765 5763 5761 5760 5758 5758 5757 5756 5755 5754 5752 5751 5749 5748 5746 5745 5744 5742 5741 5740 5739 5738
5832 5792 5780 5796 5805 5814 5834 5832 5834 5841 5833 5829 5829 5822 5818 5815 5808 5799 5789 5783 5780 5777 5776 5774 5771 5767 5765 5763 5761 5759 5757 5756 5755 5755 5754 5753 5752 5751 5749 5748 5746 5745 5744 5742 5741 5740 5739 5738 5737
5818 5789 5800 5823 5829 5829 5835 5834 5833 5828 5822 5821 5822 5824 5823 5815 5806 5797 5788 5781 5778 5775 5773 5772 5770 5766 5763 5762 5760 5757 5756 5754 5753 5753 5752 5751 5750 5749 5748 5747 5745 5744 5743 5742 5740 5739 5738 5737 5736
5822 5809 5825 5837 5844 5843 5838 5836 5839 5825 5813 5821 5820 5819 5818 5812 5804 5798 5792 5787 5783 5779 5775 5772 5769 5766 5763 5760 5757 5756 5754 5753 5752 5751 5749 5748 5748 5747 5747 5745 5744 5743 5742 5741 5740 5739 5738 5737 5735
5827 5831 5839 5843 5850 5846 5842 5840 5834 5832 5830 5841 5837 5831 5822 5811 5806 5801 5795 5790 5786 5781 5777 5774 5771 5766 5762 5759 5756 5754 5752 5751 5750 5749 5748 5747 5746 5746 5745 5744 5743 5742 5741 5740 5739 5738 5737 5736 5735
5828 5833 5843 5849 5851 5851 5849 5842 5839 5837 5844 5844 5837 5828 5821 5814 5808 5805 5801 5795 5789 5783 5779 5776 5772 5767 5763 5759 5755 5753 5751 5750 5749 5748 5747 5746 5746 5745 5745 5744 5742 5741 5741 5740 5739 5738 5737 5735 5733
5832 5836 5841 5847 5849 5852 5843 5839 5837 5835 5843 5836 5830 5823 5820 5816 5810 5804 5799 5794 5790 5786 5782 5778 5772 5767 5763 5758 5755 5753 5751 5750 5749 5748 5747 5746 5745 5745 5744 5744 5743 5742 5741 5740 5739 5738 5737 5735 5734
5837 5828 5831 5841 5846 5847 5841 5823 5830 5840 5839 5830 5826 5822 5818 5815 5812 5806 5803 5798 5794 5789 5784 5778 5773 5768 5763 5758 5755 5753 5751 5750 5749 5748 5747 5746 5745 5745 5745 5744 5743 5743 5742 5740 5739 5738 5736 5735 5734
5824 5814 5805 5828 5841 5845 5827 5803 5828 5841 5834 5824 5823 5821 5816 5812 5812 5809 5805 5800 5795 5790 5784 5779 5775 5768 5763 5759 5755 5753 5751 5749 5749 5748 5747 5746 5745 5745 5744 5744 5743 5743 5742 5741 5739 5737 5735 5734 5732
5798 5789 5796 5816 5841 5840 5825 5810 5829 5839 5833 5824 5822 5819 5814 5809 5808 5807 5804 5800 5795 5790 5784 5778 5774 5768 5763 5758 5754 5751 5750 5749 5749 5748 5747 5746 5745 5744 5744 5744 5743 5743 5742 5741 5741 5738 5736 5733 5732
5781 5789 5795 5804 5833 5835 5822 5818 5829 5834 5831 5824 5823 5819 5814 5809 5807 5807 5804 5800 5795 5790 5785 5779 5773 5768 5763 5758 5753 5750 5748 5748 5747 5747 5747 5746 5745 5745 5744 5744 5743 5743 5742 5740 5739 5737 5736 5734 5732
5797 5793 5792 5810 5836 5831 5820 5819 5824 5828 5826 5821 5818 5816 5812 5809 5809 5807 5803 5799 5793 5787 5783 5778 5772 5767 5762 5756 5752 5748 5745 5745 5745 5745 5746 5745 5745 5745 5744 5743 5743 5743 5741 5740 5739 5737 5735 5732 5732
5798 5791 5795 5812 5833 5827 5816 5816 5825 5827 5825 5824 5820 5816 5811 5806 5803 5801 5798 5795 5791 5785 5781 5777 5772 5767 5763 5759 5755 5751 5748 5745 5744 5744 5744 5744 5744 5744 5744 5744 5743 5742 5740 5739 5739 5737 5733 5732 5732
5796 5794 5799 5806 5818 5822 5812 5798 5807 5818 5822 5822 5822 5819 5815 5809 5803 5799 5795 5792 5790 5785 5780 5777 5772 5768 5763 5759 5754 5750 5745 5742 5740 5740 5741 5743 5743 5744 5744 5743 5742 5741 5740 5738 5738 5738 5734 5729 5730
5786 5811 5813 5811 5795 5782 5795 5764 5787 5801 5805 5809 5812 5812 5811 5809 5805 5799 5795 5791 5787 5784 5781 5777 5772 5768 5764 5759 5754 5748 5743 5740 5741 5741 5741 5742 5742 5743 5743 5743 5742 5741 5741 5739 5739 5739 5736 5733 5728
5802 5820 5816 5809 5793 5778 5781 5766 5774 5794 5791 5799 5807 5811 5812 5811 5806 5800 5797 5793 5788 5784 5780 5776 5771 5767 5764 5760 5755 5750 5746 5744 5743 5742 5740 5740 5742 5742 5743 5743 5742 5741 5741 5740 5739 5738 5737 5735 5731
5820 5812 5797 5781 5769 5753 5770 5764 5764 5781 5793 5801 5808 5811 5811 5810 5806 5800 5796 5791 5786 5783 5779 5775 5769 5765 5763 5759 5755 5751 5746 5743 5741 5740 5738 5739 5740 5741 5742 5742 5742 5741 5741 5740 5739 5739 5737 5735 5733
5808 5771 5744 5743 5732 5740 5768 5764 5767 5798 5809 5811 5809 5810 5810 5808 5802 5797 5792 5787 5784 5780 5777 5773 5768 5764 5761 5758 5754 5751 5748 5745 5743 5741 5739 5738 5738 5739 5741 5741 5741 5740 5740 5740 5739 5738 5736 5735 5733
5791 5772 5738 5728 5726 5738 5762 5759 5779 5810 5817 5818 5815 5811 5808 5803 5799 5796 5792 5788 5784 5781 5777 5772 5767 5763 5761 5757 5754 5751 5749 5746 5744 5743 5741 5739 5739 5740 5741 5740 5740 5740 5740 5739 5738 5736 5735 5735 5733
5786 5772 5772 5746 5742 5735 5744 5764 5785 5805 5804 5805 5803 5802 5800 5799 5796 5793 5791 5788 5784 5780 5776 5772 5767 5763 5760 5757 5754 5751 5749 5747 5745 5743 5742 5740 5740 5740 5740 5740 5739 5738 5738 5737 5736 5734 5733 5733 5731
5801 5788 5756 5740 5725 5720 5737 5749 5757 5780 5786 5794 5794 5796 5796 5795 5792 5790 5788 5785 5782 5779 5775 5772 5767 5763 5760 5757 5754 5752 5749 5747 5746 5744 5741 5740 5739 5739 5739 5739 5738 5737 5736 5735 5733 5732 5731 5730 5729
5788 5781 5763 5742 5736 5722 5719 5739 5784 5787 5792 5792 5793 5795 5794 5790 5788 5786 5785 5783 5780 5776 5772 5768 5765 5762 5759 5757 5755 5752 5749 5747 5745 5743 5742 5741 5740 5739 5738 5737 5736 5735 5734 5733 5731 5730 5729 5727 5725
5794 5783 5764 5743 5738 5732 5726 5744 5798 5798 5798 5796 5794 5795 5794 5790 5788 5785 5783 5779 5775 5771 5768 5765 5762 5760 5758 5756 5753 5751 5749 5747 5744 5743 5742 5740 5738 5738 5737 5736 5734 5733 5732 5730 5729 5727 5726 5724 5722